Dewpoint
53 53 53 53 53 53 54 54 55 55 56 56 56 56 57 57 57 57 57 57 57 56 57 57 57 57 57 57 57 58 57 56 52 44 47 34 41 56 68 69 68 76 76 69 69 66 65 64 63 64 66 66 66 66 67 67 67 59 57 56 54 53 50 47 45 45 42 42 43 49 54 56 56 57 60 61 60 60 60 61 62 64 64 65 66 67 68 69
53 53 53 53 53 53 54 54 54 55 55 55 56 56 56 56 57 57 57 57 57 57 57 57 57 57 57 57 57 58 57 54 47 46 43 41 59 61 64 68 71 76 71 67 65 62 62 62 62 62 64 64 66 65 67 64 67 62 56 53 53 51 50 50 48 45 43 43 43 48 54 55 55 59 59 58 59 59 60 61 63 63 64 65 66 67 68 69
53 53 53 53 53 53 54 54 54 55 55 55 55 56 55 56 56 56 57 57 57 57 57 57 57 57 57 57 58 58 56 49 48 31 22 59 65 65 64 67 72 76 61 62 62 59 59 60 62 61 60 61 63 63 64 61 64 63 58 53 52 52 49 49 47 45 45 44 43 45 52 54 56 58 59 58 58 59 60 61 62 63 63 64 66 67 67 68
53 53 53 53 53 54 54 54 54 55 55 55 55 55 56 56 56 56 56 56 57 56 57 56 57 57 57 57 58 57 55 54 22 17 22 62 72 70 66 67 73 74 61 61 59 56 57 59 60 60 59 58 58 60 58 59 56 56 58 55 53 52 50 50 49 47 44 44 43 47 49 55 57 57 57 58 58 58 59 61 61 62 64 64 65 66 67 67
52 52 53 53 53 53 54 54 54 54 54 54 54 54 55 55 56 56 56 56 56 56 56 56 57 57 57 57 57 57 54 9 8 20 29 71 73 74 69 68 74 70 61 62 57 55 56 57 59 59 58 58 57 54 56 57 57 49 56 56 54 49 47 48 48 47 45 45 45 48 51 55 56 56 57 58 56 57 59 61 62 63 64 65 65 66 66 66
52 52 53 53 53 53 53 54 54 54 54 54 54 55 55 55 56 56 56 56 56 56 56 56 57 57 57 57 57 55 27 7 16 16 75 74 73 72 68 68 73 66 60 60 59 58 56 57 58 57 56 54 55 54 53 55 55 52 51 49 50 50 49 49 47 46 45 44 44 46 50 54 54 54 57 57 56 57 60 62 63 64 65 65 65 65 65 66
52 52 52 53 53 53 53 54 53 54 54 54 55 55 55 55 55 55 55 55 56 56 56 56 56 57 57 58 56 55 31 9 25 20 75 73 70 70 69 72 74 61 56 53 54 56 56 54 56 56 54 53 52 53 54 52 54 53 50 49 47 46 47 48 47 45 44 43 43 44 49 51 52 52 56 56 56 58 60 62 63 64 65 66 65 65 65 65
52 52 52 52 53 53 53 53 53 54 54 54 54 54 55 55 55 55 55 55 55 56 56 56 56 56 57 56 52 35 40 31 29 28 54 72 70 69 71 69 62 59 53 49 47 46 54 48 52 52 51 49 51 51 52 52 52 51 51 50 48 46 43 42 44 45 43 43 43 43 47 48 50 51 55 55 55 59 61 63 64 65 65 65 65 65 66 66
53 52 52 53 53 52 53 54 53 54 54 54 55 55 55 55 55 55 55 56 56 56 56 56 56 56 57 56 44 25 18 29 27 24 52 65 68 66 66 64 60 55 51 48 46 43 45 46 44 48 47 48 49 47 49 50 48 50 49 47 43 39 37 38 40 42 43 43 44 39 44 46 46 53 54 53 58 61 62 63 64 65 65 65 65 65 66 66
52 53 52 52 53 53 53 53 53 54 54 54 54 54 54 54 54 55 55 55 55 56 56 56 55 56 56 55 42 20 18 23 30 39 52 63 64 63 59 62 58 53 49 48 45 42 37 36 40 39 40 38 40 41 45 45 43 41 46 46 43 41 39 37 38 41 43 44 45 41 37 41 43 51 49 57 60 62 62 63 64 64 64 65 65 65 66 66
52 52 53 52 53 54 53 53 54 54 54 54 54 54 54 54 54 55 55 55 55 55 55 56 56 56 51 54 30 17 20 28 43 45 54 62 59 57 52 61 57 52 48 47 45 42 39 36 36 39 39 36 40 40 40 41 36 33 32 27 25 24 24 27 37 41 43 44 45 41 38 43 44 47 50 57 60 62 62 62 63 63 64 64 65 65 66 66
53 52 53 53 53 53 54 54 54 54 54 54 54 54 54 54 54 54 54 54 54 55 56 56 57 56 56 54 40 21 27 28 30 46 57 56 52 51 49 58 56 50 46 43 44 43 41 37 40 40 37 40 37 39 37 38 33 29 22 16 16 17 19 24 33 41 44 43 44 41 42 44 46 44 53 59 61 61 62 62 62 63 63 64 64 64 65 66
52 52 52 53 53 53 53 53 53 54 54 53 54 53 54 54 53 54 54 54 55 55 56 56 57 56 55 33 39 32 26 25 24 27 29 53 51 49 44 54 55 49 44 41 41 42 42 39 39 40 40 43 40 35 33 30 25 22 20 16 16 17 17 18 36 41 43 43 44 40 37 39 45 48 57 59 60 61 61 61 62 62 63 63 63 64 65 66
53 52 53 53 53 53 53 53 53 53 53 53 53 53 53 52 53 54 55 55 56 55 55 57 56 56 49 31 29 42 39 35 35 36 34 35 46 46 43 47 51 47 46 39 38 42 42 42 40 38 42 39 38 33 36 32 29 23 18 20 15 14 14 17 31 40 41 43 44 41 37 38 41 54 57 59 60 60 60 61 61 62 62 62 63 64 65 65
53 53 53 53 52 52 52 53 53 53 53 53 53 52 52 52 53 55 57 57 56 56 57 58 57 55 45 33 40 42 60 53 45 36 32 28 29 30 41 43 45 45 43 41 37 38 43 43 43 40 37 39 39 36 33 26 19 18 16 14 15 15 15 17 23 40 39 41 43 41 39 39 44 54 58 59 59 60 60 60 61 61 61 61 62 64 64 64
53 53 53 53 53 52 53 53 53 53 53 52 51 51 52 53 56 59 58 56 57 59 57 56 56 56 44 17 17 51 54 49 48 49 44 32 27 24 25 42 43 43 42 40 38 41 38 42 40 39 36 33 30 29 25 21 20 20 15 16 14 17 15 15 17 35 40 41 42 41 39 45 49 54 57 59 59 59 59 60 60 60 61 61 62 63 63 64
53 53 53 53 53 53 53 53 53 52 52 52 51 52 52 55 58 58 58 58 58 58 56 54 55 57 31 27 35 34 32 41 50 49 46 36 30 26 27 33 39 42 42 41 39 36 32 35 33 34 33 30 28 25 24 23 20 19 21 15 15 13 17 16 18 24 40 42 40 41 41 43 50 54 57 58 58 58 59 59 60 60 60 61 61 62 63 63
52 52 52 52 52 53 53 53 52 52 51 50 50 50 50 55 58 58 57 58 58 58 58 58 54 45 25 34 29 27 37 35 44 45 43 38 31 28 28 29 33 38 38 38 38 31 30 27 27 26 27 28 26 24 25 24 22 19 19 19 15 18 15 14 19 18 39 41 40 40 40 43 51 54 56 57 58 58 58 59 59 59 60 60 60 61 62 62
52 52 52 52 52 52 53 52 52 51 50 51 51 53 54 56 56 53 54 55 52 39 37 47 39 19 7 31 36 30 34 42 38 39 39 38 33 29 29 31 31 30 29 32 28 29 25 24 28 25 22 24 25 24 23 23 18 16 16 15 19 14 14 15 17 18 38 39 39 39 39 42 51 54 55 56 57 57 58 59 59 59 59 60 60 60 61 62
52 51 52 51 52 53 52 52 52 51 50 49 45 46 44 31 29 35 49 45 36 31 29 33 43 31 32 30 30 34 37 39 39 41 40 41 32 29 28 29 28 28 25 28 25 22 23 20 20 20 21 23 25 24 22 20 18 17 18 17 15 15 15 16 19 19 32 39 39 39 39 43 51 53 55 56 57 57 57 57 58 58 59 59 59 60 60 61
52 52 52 52 53 53 52 52 51 50 50 49 46 35 29 29 27 27 29 29 30 30 30 30 31 39 34 31 34 35 32 34 42 40 40 44 34 29 28 28 25 24 24 24 22 28 22 20 20 20 23 23 24 23 20 19 17 16 16 15 15 16 15 16 20 23 31 38 38 39 39 44 50 53 54 55 56 55 56 57 57 58 58 58 58 59 60 60
51 52 52 52 52 52 52 51 50 50 50 47 42 34 32 30 31 30 29 27 28 28 26 27 28 28 33 35 34 37 35 30 27 25 30 36 32 30 29 26 24 23 24 23 24 26 21 19 20 21 23 24 24 23 21 18 17 16 15 15 15 15 16 17 18 20 25 36 36 37 38 42 49 52 54 55 55 55 56 56 57 57 57 58 58 58 59 60
52 53 52 52 52 51 51 50 49 50 45 40 39 40 31 33 31 30 30 29 28 27 25 24 23 25 25 28 33 37 33 31 25 24 32 34 30 30 25 25 24 23 20 21 21 21 20 20 20 22 23 22 21 21 20 18 18 17 16 16 15 15 16 15 18 19 21 31 33 37 36 39 46 51 53 54 55 55 55 56 56 57 57 57 57 58 58 59
52 52 52 52 52 51 51 49 49 44 40 41 40 40 35 34 32 31 31 26 19 18 20 20 21 21 22 23 27 33 31 29 28 24 30 31 25 23 23 23 22 22 21 20 21 20 20 23 21 22 22 22 21 20 19 18 18 17 16 16 16 16 15 15 17 17 22 23 33 38 41 41 42 46 49 53 54 54 54 55 55 56 57 57 57 57 58 58
52 52 52 52 51 51 49 48 41 41 42 37 39 39 34 35 34 33 32 26 24 24 25 21 19 18 20 23 29 29 29 26 26 23 28 29 25 23 21 22 22 21 22 20 19 19 19 20 23 21 21 21 21 20 19 18 18 18 17 16 16 17 16 15 16 15 16 16 31 36 35 38 40 43 47 50 52 51 52 53 54 55 55 55 56 56 57 58
52 52 53 52 52 51 48 38 38 43 40 33 29 33 35 36 35 39 31 26 19 20 23 19 20 19 20 17 25 24 23 20 21 22 27 29 30 25 25 23 23 21 21 21 20 21 19 22 22 21 21 20 20 20 20 18 17 17 18 17 15 15 15 15 16 16 18 17 26 36 32 34 40 39 43 47 49 50 50 51 52 53 54 54 54 56 56 57
53 53 52 51 51 49 41 38 43 43 32 26 30 36 37 38 39 41 23 21 21 24 19 25 21 17 20 18 19 11 6 7 15 18 24 35 26 27 23 22 23 24 22 24 26 20 22 22 21 22 21 21 20 19 20 18 17 16 18 15 14 13 13 13 15 14 18 30 28 18 36 35 36 38 40 43 47 48 48 49 50 51 53 53 53 54 56 56
53 53 52 51 50 49 45 45 45 39 38 34 38 39 39 40 43 39 23 20 21 26 18 17 17 20 20 16 13 10 7 10 6 9 18 26 27 24 23 20 21 19 20 21 18 24 23 23 21 20 21 21 20 20 21 18 17 17 17 13 12 12 12 12 14 15 16 17 16 21 32 25 36 40 40 41 43 45 45 46 48 50 51 52 52 53 55 56
52 52 52 51 50 48 48 46 44 40 40 40 41 41 41 43 43 26 26 19 25 26 22 15 21 13 14 14 10 9 10 12 9 9 14 22 26 24 22 21 20 19 20 20 18 23 24 24 23 22 21 20 20 20 20 18 16 16 15 15 12 11 10 11 12 14 21 18 15 17 22 20 28 40 39 41 41 42 44 45 46 48 49 50 51 52 53 55
52 52 51 51 47 43 43 45 44 43 42 43 42 43 44 45 27 24 22 19 25 16 19 19 17 13 12 10 9 8 6 7 13 13 12 13 19 24 21 24 21 19 19 20 19 21 22 34 30 24 23 23 21 18 18 17 17 17 14 10 8 8 11 16 20 19 21 15 15 14 19 19 16 32 38 40 40 41 42 44 45 47 48 49 50 51 51 53
51 51 51 50 45 44 45 38 36 42 42 42 44 44 44 30 27 19 18 20 20 18 22 18 14 13 10 11 8 8 6 7 8 9 8 13 15 20 22 22 21 20 20 19 19 19 20 22 28 25 27 25 23 20 16 16 15 15 10 9 12 12 14 12 18 25 11 8 20 15 14 23 17 24 37 40 41 42 42 42 43 44 45 47 49 50 50 52
50 49 50 49 47 49 43 37 37 41 43 45 45 44 22 15 17 17 17 22 20 22 14 15 20 21 19 16 14 8 5 8 9 8 5 9 12 16 18 21 20 18 18 18 17 19 18 19 21 22 34 24 22 21 19 15 14 13 11 13 10 12 9 8 10 7 10 7 19 18 16 24 22 25 34 39 40 42 42 42 42 43 44 45 47 48 49 50
49 49 49 48 46 44 45 45 45 44 45 45 45 36 21 19 14 14 15 17 22 18 19 24 21 21 20 17 14 12 6 3 8 9 6 10 13 16 19 19 21 20 19 19 17 17 17 20 19 20 21 28 21 19 18 15 14 12 11 12 10 7 6 9 10 16 16 20 21 17 19 14 30 29 32 37 41 41 42 43 43 43 44 44 46 47 48 49
49 49 47 46 45 44 45 47 46 45 44 45 42 31 25 19 19 30 15 16 16 23 24 23 22 20 18 14 15 9 11 5 4 5 9 10 14 16 18 19 19 20 19 18 16 15 15 15 16 18 18 21 22 20 19 16 14 13 12 8 10 9 10 10 10 5 5 9 12 20 19 27 18 29 32 36 41 42 42 43 44 44 44 45 45 46 47 48
48 47 44 43 44 43 45 45 44 46 46 43 33 23 17 16 21 18 19 20 21 26 24 25 21 19 16 14 15 16 10 7 5 7 7 10 13 15 17 18 17 19 17 15 18 20 14 15 18 18 19 19 19 21 21 17 13 11 10 10 10 8 28 4 16 15 17 15 15 23 23 29 21 38 34 33 39 42 43 43 44 44 45 45 45 46 47 47
46 42 43 42 43 41 42 40 36 46 44 40 29 26 18 19 17 21 18 29 27 25 26 23 23 18 16 15 19 16 18 18 12 6 6 8 11 15 16 17 17 17 16 17 19 14 18 13 15 21 19 18 19 20 19 15 16 13 7 7 8 11 6 9 30 29 26 19 10 29 23 23 27 25 25 35 36 40 43 43 43 43 44 46 47 47 47 47
44 43 39 39 41 42 42 36 37 46 44 39 28 21 23 22 24 28 33 27 27 28 26 22 22 20 19 18 16 19 20 19 15 12 10 9 9 11 14 14 17 16 17 18 17 17 13 14 18 15 16 17 18 20 18 16 16 5 7 7 12 12 8 9 4 15 9 7 15 20 12 16 21 22 37 32 36 37 41 42 42 43 44 45 47 48 48 47
44 42 43 42 40 40 35 36 37 44 42 37 32 37 34 27 32 31 31 28 30 29 26 25 23 23 22 22 18 22 23 20 16 18 14 12 8 13 10 12 13 15 15 16 16 18 15 11 13 15 14 16 19 18 17 17 16 14 8 9 5 10 6 14 13 2 3 5 4 14 18 18 22 24 28 30 34 35 38 42 42 43 43 45 46 48 48 48
43 40 35 36 33 34 36 38 38 43 40 36 34 34 36 33 33 31 31 31 32 30 25 25 23 25 26 24 23 24 23 21 22 20 16 17 16 22 23 18 11 12 14 14 13 21 17 10 14 18 14 14 15 18 15 16 17 17 8 4 9 7 6 10 8 19 9 7 9 1 14 9 25 18 26 24 33 35 36 38 41 42 43 44 45 47 48 49
41 37 32 36 34 36 38 38 38 41 39 34 34 33 34 33 33 33 33 33 31 30 28 27 29 26 26 25 23 22 24 23 22 21 19 15 13 24 28 29 28 28 17 14 13 15 15 15 10 15 17 15 13 17 15 16 16 16 11 5 6 13 13 7 21 6 8 18 12 8 2 12 24 29 27 25 31 35 36 37 40 41 43 44 45 46 48 49
43 38 35 35 36 37 37 35 36 39 38 38 37 36 36 34 34 33 33 33 31 32 29 28 27 25 25 23 22 23 22 23 22 22 21 20 20 18 29 28 29 28 27 18 12 13 15 17 11 15 13 13 14 17 15 16 17 16 14 10 4 4 8 3 5 14 17 12 14 9 1 15 21 33 28 25 29 34 37 38 39 41 42 44 45 45 47 49
40 32 30 36 38 38 36 30 31 34 30 30 29 32 31 35 30 32 34 33 32 30 29 27 26 25 24 22 23 27 27 27 24 22 22 21 21 26 28 28 29 30 26 24 29 14 14 24 14 12 12 11 13 14 18 17 18 18 16 14 8 6 9 7 9 11 15 8 25 21 11 9 24 32 30 28 27 28 35 39 39 40 42 43 44 45 46 48
36 34 37 38 38 37 34 32 33 32 30 27 28 29 29 28 29 28 27 27 25 27 25 23 22 22 26 28 28 27 28 27 26 24 28 27 27 28 28 28 29 32 36 37 40 41 44 22 16 15 19 17 16 15 16 19 17 17 17 16 11 6 4 4 7 18 7 16 11 11 15 14 25 40 32 25 28 27 32 38 39 40 41 43 44 44 46 48
38 38 37 38 39 37 33 29 29 29 29 29 30 29 29 29 28 28 28 27 26 26 26 26 26 27 27 29 28 27 29 27 31 28 29 29 28 29 28 28 30 30 39 40 41 39 31 27 22 19 15 13 15 18 15 17 17 16 16 17 15 13 7 9 22 26 9 9 9 10 5 6 23 48 39 37 40 34 33 34 39 39 41 42 44 45 46 48
40 39 39 40 41 35 31 35 29 29 30 30 30 28 28 28 28 28 28 26 27 26 26 25 26 25 27 29 29 28 30 29 29 28 27 27 28 29 28 28 30 28 39 40 46 39 33 29 28 16 13 13 13 12 13 14 14 21 18 16 16 15 11 10 5 19 13 27 19 11 12 26 28 29 29 26 27 32 37 38 36 38 40 41 43 45 48 49
34 30 32 33 34 35 33 33 31 32 31 31 29 29 28 27 28 29 28 27 28 28 27 26 25 25 27 27 27 27 27 29 27 28 27 26 28 28 28 28 29 28 43 46 43 36 35 35 30 27 21 15 16 24 27 27 16 12 13 14 15 15 14 11 19 17 12 23 15 20 24 19 17 18 23 22 21 11 11 22 39 39 38 41 42 45 46 48
39 33 30 31 33 35 32 32 32 33 32 32 28 29 27 27 28 28 30 27 29 28 27 26 26 28 28 28 28 26 27 27 28 26 26 27 28 27 28 29 28 36 43 37 38 34 36 33 31 33 32 29 25 23 22 20 13 13 12 12 13 14 15 13 13 13 26 16 13 24 35 17 19 26 25 25 23 19 14 14 31 41 40 40 42 45 53 47
33 32 35 38 34 30 31 30 32 33 33 31 29 28 27 26 27 29 29 29 30 30 27 27 26 30 29 28 28 26 28 27 28 26 28 27 27 27 26 28 26 37 35 26 32 31 32 31 31 34 31 30 30 29 21 20 13 12 12 12 12 13 14 12 16 19 23 15 15 25 32 24 21 23 21 21 22 22 17 15 24 32 40 43 44 45 47 47
37 38 36 39 33 33 34 33 35 34 31 30 30 30 26 27 29 31 31 30 29 28 29 27 28 29 29 29 30 29 30 25 26 30 28 27 28 28 25 25 30 27 27 26 27 35 34 33 36 32 30 30 30 29 23 18 16 13 12 12 12 12 12 12 13 17 16 21 20 23 31 23 19 19 20 20 24 25 24 30 35 37 36 41 44 47 47 47
36 35 34 36 38 35 35 34 34 33 31 33 31 29 28 30 30 30 32 31 30 29 30 30 29 29 29 29 30 29 29 28 28 26 29 30 28 31 27 28 27 28 26 26 26 34 30 31 35 31 31 30 30 29 21 16 15 15 13 13 12 12 12 12 11 14 21 16 18 22 29 28 28 25 19 19 27 46 40 38 39 35 38 43 46 47 48 48
41 42 42 37 34 34 36 35 33 32 31 30 30 30 30 31 30 31 32 33 32 30 29 30 30 30 30 29 29 29 29 30 30 29 29 29 27 29 28 30 27 26 27 26 31 33 32 33 33 32 31 30 30 24 21 17 15 14 15 15 13 12 12 11 13 15 18 20 22 22 23 23 25 26 30 30 33 39 36 36 41 47 43 43 45 47 48 48
45 47 44 40 32 34 33 33 32 32 29 30 31 30 31 30 31 32 32 32 31 33 30 31 32 31 30 30 29 29 30 32 33 32 31 29 29 29 29 28 28 27 28 28 30 28 32 32 30 31 29 29 29 29 29 27 16 13 13 14 15 13 13 13 13 20 17 14 15 16 14 20 19 27 23 23 26 31 36 39 42 44 50 47 43 45 48 49